Weather History for Jefferson, NC

Change the Weather History Date:

Monday, April 16, 2012

  Actual Average Record
Temperature  
Mean Temperature 66 °F -  
Max Temperature 77 °F 64 °F 78 °F (1972)
Min Temperature 55 °F 38 °F 23 °F (2014)
Cooling Degree Days 1    
Growing Degree Days 16 (Base 50)    
Moisture  
Dew Point 51 °F    
Average Humidity 61    
Maximum Humidity 88    
Minimum Humidity 38    
Precipitation  
Precipitation 0.00 in - - ()
Sea Level Pressure  
Sea Level Pressure 30.19 in    
Wind  
Wind Speed 4 mph (South)    
Max Wind Speed 14 mph    
Max Gust Speed 25 mph    
Visibility 10 miles    
Events      
Averages and records for this station are not official NWS values.
T = Trace of Precipitation, MM = Missing Value Source: NWS Daily Summary

Daily Weather History Graph

Daily Weather History Graph

Search for Another Location

Airport:

Trip Planner

Search our weather history database for the weather conditions in past years. The results will help you decide how hot, cold, wet, or windy it might be!

Date:

Astronomy

Apr. 16, 2012 Rise Set
Actual Time 6:50 AM EDT 8:01 PM EDT
Civil Twilight 6:23 AM EDT 8:27 PM EDT
Nautical Twilight 5:51 AM EDT 8:59 PM EDT
Astronomical Twilight 5:18 AM EDT 9:32 PM EDT
Moon 4:10 AM EDT (4/16) 4:00 PM EDT (4/16)
Length of Visible Light 14h 04m
Length of Day
13h 10m
Waning Crescent, 19% of the Moon is Illuminated
Apr 16
Waning Crescent
Apr 21
New
Apr 29
First Quarter
May 5
Full
May 12
Last Quarter

Hourly Weather History & Observations

Time (EDT) Temp. Dew Point Humidity Pressure Visibility Wind Dir Wind Speed Gust Speed Precip Events Conditions
12:35 AM 59.0 °F 51.8 °F 77% 30.20 in 10.0 mi South 5.8 mph - N/A   Clear
12:55 AM 59.0 °F 51.8 °F 77% 30.21 in 10.0 mi South 4.6 mph - N/A   Clear
1:15 AM 59.0 °F 51.8 °F 77% 30.21 in 10.0 mi SSW 4.6 mph - N/A   Mostly Cloudy
1:35 AM 60.8 °F 51.8 °F 72% 30.21 in 10.0 mi SSW 4.6 mph - N/A   Overcast
1:55 AM 60.8 °F 51.8 °F 72% 30.20 in 10.0 mi South 5.8 mph - N/A   Overcast
2:15 AM 59.0 °F 51.8 °F 77% 30.20 in 10.0 mi South 5.8 mph - N/A   Mostly Cloudy
2:35 AM 59.0 °F 51.8 °F 77% 30.19 in 10.0 mi South 3.5 mph - N/A   Scattered Clouds
2:55 AM 59.0 °F 51.8 °F 77% 30.19 in 10.0 mi Calm Calm - N/A   Scattered Clouds
3:15 AM 59.0 °F 51.8 °F 77% 30.18 in 10.0 mi South 3.5 mph - N/A   Scattered Clouds
3:55 AM 55.4 °F 51.8 °F 88% 30.17 in 10.0 mi South 3.5 mph - N/A   Scattered Clouds
4:35 AM 57.2 °F 51.8 °F 82% 30.17 in 10.0 mi Calm Calm - N/A   Clear
4:55 AM 57.2 °F 51.8 °F 82% 30.17 in 10.0 mi Calm Calm - N/A   Clear
5:35 AM 55.4 °F 51.8 °F 88% 30.17 in 10.0 mi South 3.5 mph - N/A   Clear
5:55 AM 55.4 °F 51.8 °F 88% 30.17 in 10.0 mi Calm Calm - N/A   Clear
6:15 AM 55.4 °F 51.8 °F 88% 30.18 in 10.0 mi SE 4.6 mph - N/A   Clear
6:35 AM 55.4 °F 51.8 °F 88% 30.18 in 10.0 mi SE 3.5 mph - N/A   Clear
6:55 AM 55.4 °F 51.8 °F 88% 30.19 in 10.0 mi Calm Calm - N/A   Clear
7:55 AM 55.4 °F 51.8 °F 88% 30.20 in 10.0 mi Calm Calm - N/A   Clear
8:15 AM 57.2 °F 51.8 °F 82% 30.20 in 10.0 mi Calm Calm - N/A   Clear
8:35 AM 59.0 °F 51.8 °F 77% 30.20 in 10.0 mi Calm Calm - N/A   Clear
9:15 AM 60.8 °F 51.8 °F 72% 30.20 in 10.0 mi SSE 3.5 mph - N/A   Clear
9:35 AM 62.6 °F 51.8 °F 68% 30.20 in 10.0 mi Calm Calm - N/A   Clear
10:15 AM 66.2 °F 51.8 °F 60% 30.21 in 10.0 mi Calm Calm - N/A   Clear
10:35 AM 68.0 °F 46.4 °F 46% 30.21 in 10.0 mi West 6.9 mph - N/A   Clear
10:55 AM 69.8 °F 44.6 °F 40% 30.22 in 10.0 mi West 6.9 mph - N/A   Clear
11:15 AM 69.8 °F 42.8 °F 38% 30.21 in 10.0 mi West 8.1 mph - N/A   Clear
11:35 AM 71.6 °F 51.8 °F 50% 30.22 in 10.0 mi SE 4.6 mph - N/A   Clear
11:55 AM 71.6 °F 53.6 °F 53% 30.21 in 10.0 mi SSE 5.8 mph - N/A   Clear
12:15 PM 69.8 °F 53.6 °F 56% 30.21 in 10.0 mi SSE 5.8 mph - N/A   Clear
12:35 PM 71.6 °F 55.4 °F 57% 30.21 in 10.0 mi SE 8.1 mph - N/A   Clear
1:15 PM 71.6 °F 53.6 °F 53% 30.21 in 10.0 mi ESE 6.9 mph - N/A   Scattered Clouds
1:35 PM 71.6 °F 53.6 °F 53% 30.20 in 10.0 mi SE 8.1 mph - N/A   Clear
1:55 PM 71.6 °F 53.6 °F 53% 30.19 in 10.0 mi SE 9.2 mph - N/A   Scattered Clouds
2:15 PM 73.4 °F 53.6 °F 50% 30.19 in 10.0 mi SE 8.1 mph - N/A   Scattered Clouds
2:35 PM 71.6 °F 53.6 °F 53% 30.18 in 10.0 mi SE 4.6 mph - N/A   Scattered Clouds
2:55 PM 71.6 °F 51.8 °F 50% 30.18 in 10.0 mi SE 6.9 mph - N/A   Scattered Clouds
3:15 PM 71.6 °F 51.8 °F 50% 30.18 in 10.0 mi SE 5.8 mph - N/A   Scattered Clouds
3:35 PM 73.4 °F 51.8 °F 47% 30.17 in 10.0 mi SE 8.1 mph - N/A   Scattered Clouds
3:55 PM 73.4 °F 51.8 °F 47% 30.17 in 10.0 mi SE 5.8 mph - N/A   Scattered Clouds
4:15 PM 75.2 °F 51.8 °F 44% 30.16 in 10.0 mi SE 4.6 mph - N/A   Scattered Clouds
4:35 PM 77.0 °F 51.8 °F 41% 30.15 in 10.0 mi SSE 3.5 mph - N/A   Mostly Cloudy
4:55 PM 73.4 °F 51.8 °F 47% 30.15 in 10.0 mi South 4.6 mph - N/A   Mostly Cloudy
5:15 PM 75.2 °F 51.8 °F 44% 30.14 in 10.0 mi South 4.6 mph - N/A   Mostly Cloudy
5:35 PM 73.4 °F 51.8 °F 47% 30.14 in 10.0 mi South 4.6 mph - N/A   Mostly Cloudy
5:55 PM 75.2 °F 51.8 °F 44% 30.15 in 10.0 mi SSW 4.6 mph - N/A   Scattered Clouds
6:15 PM 73.4 °F 51.8 °F 47% 30.15 in 10.0 mi South 3.5 mph - N/A   Scattered Clouds
6:35 PM 71.6 °F 51.8 °F 50% 30.16 in 10.0 mi Calm Calm - N/A   Scattered Clouds
6:55 PM 71.6 °F 51.8 °F 50% 30.15 in 10.0 mi South 3.5 mph - N/A   Scattered Clouds
7:15 PM 69.8 °F 53.6 °F 56% 30.16 in 10.0 mi SSW 3.5 mph - N/A   Clear
7:35 PM 69.8 °F 51.8 °F 53% 30.17 in 10.0 mi Calm Calm - N/A   Clear
7:55 PM 69.8 °F 51.8 °F 53% 30.17 in 10.0 mi Calm Calm - N/A   Clear
8:15 PM 68.0 °F 53.6 °F 60% 30.18 in 10.0 mi Calm Calm - N/A   Scattered Clouds
8:35 PM 68.0 °F 53.6 °F 60% 30.19 in 10.0 mi Calm Calm - N/A   Scattered Clouds
8:55 PM 68.0 °F 51.8 °F 56% 30.20 in 10.0 mi SW 3.5 mph - N/A   Mostly Cloudy
9:15 PM 69.8 °F 48.2 °F 46% 30.20 in 10.0 mi WNW 9.2 mph 17.3 mph N/A   Overcast
9:35 PM 69.8 °F 48.2 °F 46% 30.21 in 10.0 mi WNW 9.2 mph - N/A   Mostly Cloudy
9:55 PM 68.0 °F 48.2 °F 49% 30.22 in 10.0 mi WNW 9.2 mph 16.1 mph N/A   Scattered Clouds
10:15 PM 68.0 °F 48.2 °F 49% 30.22 in 10.0 mi WNW 10.4 mph 16.1 mph N/A   Scattered Clouds
10:35 PM 68.0 °F 48.2 °F 49% 30.22 in 10.0 mi WNW 10.4 mph - N/A   Scattered Clouds
10:55 PM 66.2 °F 48.2 °F 52% 30.22 in 10.0 mi West 9.2 mph - N/A   Clear
11:15 PM 64.4 °F 48.2 °F 56% 30.21 in 10.0 mi NW 8.1 mph 16.1 mph N/A   Clear
11:35 PM 64.4 °F 50.0 °F 59% 30.21 in 10.0 mi WNW 10.4 mph 20.7 mph N/A   Clear
11:55 PM 64.4 °F 50.0 °F 59% 30.20 in 10.0 mi WNW 13.8 mph 25.3 mph N/A   Scattered Clouds